This demonstration page uses our WeatherBlox Daily Observations layout. Learn more.

Left ArrowRight Arrow

Hourly Observations for July 30, 2020

Temp ( °F °C ) Dew Point ( °F °C ) Humidity (%) Winds ( mph kmh ) Pressure ( in mb ) Visibility ( mi km ) Precip ( " mm )
12:21 am 00:21 Partly Cloudy 71 21.7 69 20.6 94 94 NNE 9 15 29.85 1011 10 16 0.00 0.00
12:53 am 00:53 Mostly Clear 70 21.1 68 20 93 93 N 5 7 29.88 1012 10 16 0.00 0.00
1:08 am 01:08 Mostly Cloudy 70 21.1 68 20 93 93 WNW 3 6 29.88 1012 10 16 0.00 0.00
1:38 am 01:38 Mostly Cloudy 69 20.6 67 19.4 93 93 NW 3 6 29.86 1011 9 14 0.00 0.00
1:53 am 01:53 Mostly Cloudy 69 20.6 67 19.4 93 93 WNW 5 7 29.89 1012 8 13 0.00 0.00
2:53 am 02:53 Mostly Cloudy 69 20.6 66 18.9 90 90 ENE 10 17 29.87 1012 10 16 0.00 0.00
2:58 am 02:58 Mostly Cloudy 69 20.6 66 18.9 90 90 ENE 13 20 29.86 1011 10 16 0.00 0.00
3:09 am 03:09 Mostly Cloudy 69 20.6 66 18.9 90 90 ENE 12 19 29.86 1011 10 16 0.00 0.00
3:53 am 03:53 Mostly Cloudy with Mist and Fog 68 20 66 18.9 93 93 ENE 9 15 29.86 1011 6 10 0.00 0.00
4:00 am 04:00 Mostly Cloudy 68 20 66 18.9 93 93 ENE 12 19 29.85 1011 7 11 0.00 0.00
4:27 am 04:27 Mostly Cloudy 68 20 66 18.9 93 93 NE 10 17 29.87 1011 8 13 0.00 0.00
4:53 am 04:53 Cloudy 68 20 65 18.3 90 90 NNE 9 15 29.88 1012 10 16 0.00 0.00
5:09 am 05:09 Cloudy 68 20 65 18.3 90 90 N 8 13 29.88 1012 10 16 0.00 0.00
5:53 am 05:53 Cloudy 67 19.4 65 18.3 93 93 N 9 15 29.90 1013 10 16 0.00 0.00
6:31 am 06:31 Cloudy 67 19.4 64 17.8 91 91 N 7 11 29.90 1013 10 16 0.00 0.00
6:49 am 06:49 Cloudy 66 19 64 18 94 94 N 12 19 29.91 1013 10 16 0.00 0.00
6:53 am 06:53 Cloudy 67 19.4 64 17.8 91 91 N 13 20 29.92 1013 10 16 0.00 0.00
7:23 am 07:23 Cloudy 67 19.4 64 17.8 91 91 N 9 15 29.93 1014 10 16 0.00 0.00
7:53 am 07:53 Cloudy 67 19.4 64 17.8 91 91 NNE 10 17 29.95 1014 10 16 0.00 0.00
8:24 am 08:24 Cloudy 67 19.4 64 17.8 91 91 N 10 17 29.94 1014 10 16 0.00 0.00
8:53 am 08:53 Cloudy 68 20 64 17.8 87 87 N 8 13 29.97 1015 10 16 0.00 0.00
9:21 am 09:21 Cloudy 68 20 64 17.8 87 87 NNE 13 20 29.95 1014 10 16 0.00 0.00
9:48 am 09:48 Cloudy with Light Rain 70 21 64 18 83 83 NNE 13 20 29.95 1014 9 14 0.00 0.00
9:53 am 09:53 Cloudy with Light Rain 69 20.6 65 18.3 87 87 NNE 15 24 29.97 1015 10 16 0.00 0.00
10:09 am 10:09 Cloudy 69 20.6 65 18.3 87 87 NNE 15 24 29.95 1014 10 16 0.00 0.00
10:27 am 10:27 Cloudy with Light Rain 69 20.6 65 18.3 87 87 NNE 10 17 29.95 1014 10 16 0.00 0.00
10:53 am 10:53 Cloudy with Light Rain 68 20 65 18.3 90 90 NNE 15 24 30.00 1016 10 16 0.00 0.00
11:22 am 11:22 Cloudy with Light Rain 68 20 65 18.3 90 90 NE 14 22 29.98 1015 8 13 0.01 0.25
11:42 am 11:42 Cloudy with Rain 67 19.4 65 18.3 93 93 NNE 12 19 29.99 1016 4 6 0.06 1.52
11:53 am 11:53 Cloudy with Rain 67 19.4 65 18.3 93 93 NNE 10 17 30.01 1016 3 5 0.10 2.54
12:53 pm 12:53 Cloudy with Light Rain 69 20.6 66 18.9 90 90 NNE 7 11 30.02 1017 10 16 0.04 1.02
1:53 pm 13:53 Cloudy 70 21.1 66 18.9 87 87 N 9 15 30.03 1017 10 16 0.00 0.00
2:53 pm 14:53 Cloudy 71 21.7 66 18.9 84 84 N 10 17 30.03 1017 10 16 0.00 0.00
3:53 pm 15:53 Mostly Sunny 73 22.8 66 18.9 79 79 N 9 15 30.02 1017 10 16 0.00 0.00
4:53 pm 16:53 Sunny 74 23.3 65 18.3 74 74 N 10 17 30.02 1017 10 16 0.00 0.00
5:53 pm 17:53 Sunny 74 23.3 64 17.8 71 71 NNW 10 17 30.03 1017 10 16 0.00 0.00
6:53 pm 18:53 Partly Cloudy 74 23.3 64 17.8 71 71 N 9 15 30.03 1017 10 16 0.00 0.00
7:53 pm 19:53 Sunny 73 22.8 64 17.8 74 74 N 8 13 30.04 1017 10 16 0.00 0.00
8:53 pm 20:53 Clear 69 20.6 63 17.2 81 81 N 6 9 30.06 1018 10 16 0.00 0.00
9:53 pm 21:53 Clear 68 20 63 17.2 84 84 NNW 6 9 30.07 1018 10 16 0.00 0.00
10:53 pm 22:53 Clear 67 19.4 62 16.7 84 84 NNW 6 9 30.08 1019 10 16 0.00 0.00
11:53 pm 23:53 Clear 67 19.4 62 16.7 84 84 NNW 6 9 30.08 1019 10 16 0.00 0.00

Powered by AerisWeather